Regional Weather Roundup
Issued by NWS

Home | Current Version | Previous Version | Graphics & Text | Print | Product List | Glossary Off
Versions: 1 2 3 4 5 6 7 8 9 10 11 12 13 14 15 16 17 18 19 20 21 22 23 24 25 26 27 28 29 30 31 32 33 34 35 36 37 38 39 40 41 42 43 44 45 46 47 48 49 50

000
ASUS43 KTOP 220559
RWRKS

WEATHER ROUNDUP FOR KANSAS
NATIONAL WEATHER SERVICE GOODLAND KS
100 AM CDT MON MAY 22 2017

NOTE:  "FAIR" INDICATES FEW OR NO CLOUDS BELOW 12,000 FEET WITH NO
SIGNIFICANT WEATHER AND/OR OBSTRUCTIONS TO VISIBILITY.

KSZ001>006-013>018-027>032-041>047-220700-
NORTHWEST KANSAS

CITY           SKY/WX    TMP DP  RH WIND       PRES   REMARKS
GOODLAND       HVY RAIN  51  50  96 N9        30.20S FOG
6HR MIN TEMP:  51; 6HR MAX TEMP:  64; 6HR PCP:  0.20;

HAYS           CLEAR     53  49  86 SW7       30.11F
HILL CITY      CLOUDY    54  52  93 NW3       30.12F
6HR MIN TEMP:  54; 6HR MAX TEMP:  73; 6HR PCP:  0.01;

RUSSELL        CLEAR     57  49  74 W5        30.10F
6HR MIN TEMP:  56; 6HR MAX TEMP:  71;

$$

KSZ061>065-074>080-084>089-220700-
SOUTHWEST KANSAS

CITY           SKY/WX    TMP DP  RH WIND       PRES   REMARKS
DODGE CITY     CLOUDY    53  49  86 SE9       30.12F
6HR MIN TEMP:  53; 6HR MAX TEMP:  65;

GARDEN CITY    MOCLDY    52  49  89 SE8       30.13F
6HR MIN TEMP:  51; 6HR MAX TEMP:  69;

LIBERAL        CLOUDY    57  52  83 S9        30.13S
$$

KSZ066>073-081>083-090>101-220700-
SOUTHEAST KANSAS

CITY           SKY/WX    TMP DP  RH WIND       PRES   REMARKS
CHANUTE        PTCLDY    57  53  86 S5        30.13F
6HR MIN TEMP:  56; 6HR MAX TEMP:  73;

COFFEYVILLE    MOCLDY    57  57 100 S3        30.14F
6HR MIN TEMP:  57; 6HR MAX TEMP:  72;

HUTCHINSON     CLOUDY    60  52  74 CALM      30.11F
6HR MIN TEMP:  53; 6HR MAX TEMP:  71;

MEDICINE LODGE   N/A     60  52  74 SE5       30.12F
NEWTON         MOCLDY    58  52  80 S7        30.12F
PARSONS        PTCLDY    57  53  86 CALM      30.15F
6HR MIN TEMP:  56; 6HR MAX TEMP:  74;

WICHITA INTL   CLOUDY    58  52  80 SE3       30.12F
6HR MIN TEMP:  56; 6HR MAX TEMP:  69; 6HR PCP: TRACE;

WICHITA JABRA  PTCLDY    58  51  78 CALM      30.12F
6HR MIN TEMP:  55; 6HR MAX TEMP:  70;

WINFIELD       PTCLDY    59  53  80 SE3       30.15F
6HR MIN TEMP:  57; 6HR MAX TEMP:  71;

$$

KSZ007>012-019>026-033>040-048>060-102>105-220700-
NORTHEAST KANSAS

CITY           SKY/WX    TMP DP  RH WIND       PRES   REMARKS
CONCORDIA      PTCLDY    55  53  93 S7        30.09F
6HR MIN TEMP:  55; 6HR MAX TEMP:  71;

EMPORIA        CLEAR     55  52  89 S7        30.12F
6HR MIN TEMP:  55; 6HR MAX TEMP:  72;

LAWRENCE       CLEAR     50  50 100 CALM      30.12S
6HR MIN TEMP:  50; 6HR MAX TEMP:  70;

MANHATTAN      PTCLDY    53  50  89 CALM      30.10F
6HR MIN TEMP:  51; 6HR MAX TEMP:  73;

OLATHE IND     CLEAR     52  48  86 S7        30.13S
6HR MIN TEMP:  52; 6HR MAX TEMP:  68;

OLATHE EXE     CLEAR     50  50 100 S3        30.13R
6HR MIN TEMP:  50; 6HR MAX TEMP:  68;

SALINA         CLOUDY    61  52  72 CALM      30.11S
6HR MIN TEMP:  58; 6HR MAX TEMP:  74; 6HR PCP: TRACE;

TOPEKA BILLARD CLEAR     54  53  97 CALM      30.11S
6HR MIN TEMP:  53; 6HR MAX TEMP:  71;

TOPEKA FORBES  CLEAR     53  49  86 S3        30.11F
6HR MIN TEMP:  53; 6HR MAX TEMP:  72;

$$




USA.gov is the U.S. government's official web portal to all federal, state and local government web resources and services.